RYR54BW EPMO-LFOB

Flight info

Callsign RYR54BW
Flight time 2h 3m
Altitude 38000
Route LOLSI T174 KORUP DCT KOBUS DCT KOMIB DCT LOHRE DCT BETEX DCT IDOSA DCT TOLVU/N0443F390 DCT RAPOR DCT VEDUS
Aircraft B38M/M-SADE3FGILRWY/SB1

Departure

Time 2026-04-25 11:39
Airport Warsaw Modlin Airport (EPMO)

Arrival

Time 2026-04-25 13:43
Airport Beauvais-Tillé airport (LFOB)
Time Latitude Longitude Altitude Speed Heading
2026-04-25 11:19 52.44722 20.65018 340 ft 0 kts 206°
2026-04-25 11:30 52.44738 20.65029 336 ft 4 kts 194°
2026-04-25 11:30 52.44761 20.65029 335 ft 4 kts 146°
2026-04-25 11:30 52.44768 20.65010 338 ft 1 kts 81°
2026-04-25 11:30 52.44768 20.65009 338 ft 1 kts 81°
2026-04-25 11:34 52.44768 20.65010 338 ft 0 kts 81°
2026-04-25 11:34 52.44770 20.65033 335 ft 4 kts 81°
2026-04-25 11:34 52.44776 20.65098 339 ft 8 kts 81°
2026-04-25 11:35 52.44787 20.65207 340 ft 11 kts 81°
2026-04-25 11:35 52.44800 20.65351 340 ft 14 kts 81°
2026-04-25 11:35 52.44815 20.65512 340 ft 13 kts 81°
2026-04-25 11:35 52.44828 20.65669 340 ft 15 kts 83°
2026-04-25 11:36 52.44845 20.65850 340 ft 17 kts 81°
2026-04-25 11:36 52.44864 20.66054 341 ft 19 kts 82°
2026-04-25 11:36 52.44885 20.66279 337 ft 21 kts 81°
2026-04-25 11:36 52.44906 20.66506 341 ft 18 kts 81°
2026-04-25 11:37 52.44926 20.66713 339 ft 20 kts 81°
2026-04-25 11:37 52.44948 20.66944 341 ft 19 kts 82°
2026-04-25 11:37 52.44998 20.67080 340 ft 15 kts
2026-04-25 11:37 52.45087 20.67059 338 ft 13 kts 351°
2026-04-25 11:38 52.45182 20.67035 339 ft 15 kts 347°
2026-04-25 11:38 52.45278 20.66981 346 ft 11 kts 333°
2026-04-25 11:38 52.45285 20.66914 339 ft 7 kts 260°
2026-04-25 11:38 52.45277 20.66836 339 ft 15 kts 261°
2026-04-25 11:39 52.45225 20.66287 336 ft 87 kts 261°
2026-04-25 11:39 52.45104 20.64930 398 ft 145 kts 261°
2026-04-25 11:39 52.44896 20.63240 1058 ft 156 kts 254°
2026-04-25 11:39 52.44627 20.61470 1964 ft 160 kts 262°
2026-04-25 11:40 52.44482 20.59583 2663 ft 178 kts 263°
2026-04-25 11:40 52.44290 20.57510 3425 ft 190 kts 258°
2026-04-25 11:40 52.43744 20.55378 3973 ft 218 kts 244°
2026-04-25 11:40 52.42894 20.53178 4643 ft 237 kts 244°
2026-04-25 11:41 52.41985 20.50818 5434 ft 248 kts 244°
2026-04-25 11:41 52.41076 20.48439 6417 ft 252 kts 244°
2026-04-25 11:41 52.40141 20.45976 7336 ft 256 kts 244°
2026-04-25 11:41 52.39198 20.43484 8254 ft 260 kts 245°
2026-04-25 11:42 52.38239 20.40943 9197 ft 263 kts 245°
2026-04-25 11:42 52.37267 20.38366 10078 ft 268 kts 245°
2026-04-25 11:42 52.36257 20.35678 10591 ft 286 kts 245°
2026-04-25 11:42 52.35203 20.32879 11142 ft 299 kts 245°
2026-04-25 11:43 52.34087 20.29928 11807 ft 307 kts 245°
2026-04-25 11:43 52.32954 20.26940 12675 ft 310 kts 245°
2026-04-25 11:43 52.31812 20.23930 13505 ft 313 kts 245°
2026-04-25 11:43 52.30655 20.20884 14270 ft 317 kts 245°
2026-04-25 11:44 52.29501 20.17846 15018 ft 320 kts 245°
2026-04-25 11:44 52.28321 20.14746 15787 ft 323 kts 245°
2026-04-25 11:44 52.27131 20.11622 16570 ft 325 kts 244°
2026-04-25 11:44 52.25927 20.08465 17223 ft 329 kts 244°
2026-04-25 11:45 52.24706 20.05268 17923 ft 333 kts 244°
2026-04-25 11:45 52.23474 20.02047 18545 ft 337 kts 244°
2026-04-25 11:45 52.22223 19.98780 19142 ft 340 kts 244°
2026-04-25 11:45 52.20964 19.95495 19721 ft 344 kts 244°
2026-04-25 11:46 52.19690 19.92176 20289 ft 347 kts 244°
2026-04-25 11:46 52.18423 19.88806 20845 ft 348 kts 248°
2026-04-25 11:46 52.17711 19.85089 21398 ft 343 kts 265°
2026-04-25 11:46 52.17354 19.81194 21859 ft 349 kts 265°
2026-04-25 11:47 52.16989 19.77317 22434 ft 352 kts 264°
2026-04-25 11:47 52.16616 19.73352 22957 ft 356 kts 264°
2026-04-25 11:47 52.16238 19.69351 23473 ft 359 kts 264°
2026-04-25 11:47 52.15855 19.65314 23921 ft 362 kts 264°
2026-04-25 11:48 52.15467 19.61241 24391 ft 364 kts 264°
2026-04-25 11:48 52.15076 19.57146 24840 ft 366 kts 264°
2026-04-25 11:48 52.14682 19.53030 25292 ft 369 kts 264°
2026-04-25 11:48 52.14282 19.48876 25734 ft 371 kts 264°
2026-04-25 11:49 52.13885 19.44765 26157 ft 373 kts 264°
2026-04-25 11:49 52.13478 19.40561 26540 ft 376 kts 264°
2026-04-25 11:49 52.13067 19.36340 26964 ft 379 kts 264°
2026-04-25 11:49 52.12650 19.32065 27318 ft 383 kts 264°
2026-04-25 11:50 52.12234 19.27832 27736 ft 384 kts 264°
2026-04-25 11:50 52.11808 19.23510 28128 ft 387 kts 264°
2026-04-25 11:50 52.11379 19.19170 28531 ft 389 kts 264°
2026-04-25 11:50 52.10947 19.14814 28909 ft 391 kts 264°
2026-04-25 11:51 52.10515 19.10474 29275 ft 394 kts 264°
2026-04-25 11:51 52.10074 19.06067 29642 ft 396 kts 264°
2026-04-25 11:51 52.09628 19.01626 29991 ft 398 kts 264°
2026-04-25 11:51 52.09179 18.97171 30309 ft 400 kts 264°
2026-04-25 11:52 52.08727 18.92703 30650 ft 401 kts 264°
2026-04-25 11:52 52.08271 18.88215 30965 ft 402 kts 264°
2026-04-25 11:52 52.07811 18.83709 31265 ft 404 kts 264°
2026-04-25 11:52 52.07353 18.79231 31566 ft 406 kts 264°
2026-04-25 11:53 52.06886 18.74688 31872 ft 407 kts 264°
2026-04-25 11:53 52.06415 18.70126 32170 ft 409 kts 264°
2026-04-25 11:53 52.05940 18.65545 32512 ft 409 kts 264°
2026-04-25 11:53 52.05465 18.60985 32941 ft 408 kts 264°
2026-04-25 11:54 52.04997 18.56497 33345 ft 406 kts 264°
2026-04-25 11:54 52.04522 18.51972 33779 ft 405 kts 264°
2026-04-25 11:54 52.03573 18.42966 34428 ft 403 kts 264°
2026-04-25 11:55 52.03098 18.38480 34728 ft 403 kts 264°
2026-04-25 11:55 52.02618 18.33980 35030 ft 403 kts 264°
2026-04-25 11:55 52.02146 18.29563 35318 ft 403 kts 264°
2026-04-25 11:55 52.01665 18.25077 35602 ft 402 kts 264°
2026-04-25 11:56 52.01182 18.20586 35874 ft 402 kts 264°
2026-04-25 11:56 52.00696 18.16095 36139 ft 402 kts 264°
2026-04-25 11:56 52.00216 18.11667 36397 ft 402 kts 264°
2026-04-25 11:56 51.99729 18.07196 36657 ft 402 kts 264°
2026-04-25 11:57 51.99240 18.02719 36897 ft 402 kts 264°
2026-04-25 11:57 51.98750 17.98251 37130 ft 402 kts 264°
2026-04-25 11:57 51.98256 17.93764 37369 ft 402 kts 264°
2026-04-25 11:57 51.97762 17.89292 37598 ft 402 kts 264°
2026-04-25 11:58 51.97274 17.84880 37820 ft 402 kts 264°
2026-04-25 11:58 51.96774 17.80393 37937 ft 403 kts 264°
2026-04-25 11:58 51.96274 17.75917 37919 ft 403 kts 264°
2026-04-25 11:59 51.95272 17.66989 37919 ft 402 kts 264°
2026-04-25 11:59 51.94268 17.58116 37926 ft 402 kts 263°
2026-04-25 12:00 51.92741 17.44729 37935 ft 403 kts 263°
2026-04-25 12:01 51.91195 17.31322 37921 ft 403 kts 263°
2026-04-25 12:01 51.90162 17.22441 37935 ft 404 kts 263°
2026-04-25 12:02 51.88582 17.08976 37940 ft 404 kts 263°
2026-04-25 12:02 51.87528 17.00069 37936 ft 404 kts 263°
2026-04-25 12:03 51.86463 16.91131 37943 ft 404 kts 263°
2026-04-25 12:03 51.85390 16.82191 37946 ft 404 kts 263°
2026-04-25 12:04 51.84320 16.73317 37960 ft 403 kts 263°
2026-04-25 12:04 51.83234 16.64400 37952 ft 402 kts 263°
2026-04-25 12:05 51.82153 16.55565 37936 ft 404 kts 263°
2026-04-25 12:05 51.81052 16.46633 37949 ft 405 kts 263°
2026-04-25 12:06 51.79946 16.37711 37951 ft 404 kts 262°
2026-04-25 12:06 51.78837 16.28836 37957 ft 404 kts 262°
2026-04-25 12:07 51.77718 16.19925 37952 ft 404 kts 263°
2026-04-25 12:07 51.76589 16.11002 37959 ft 404 kts 262°
2026-04-25 12:08 51.75461 16.02144 37973 ft 405 kts 262°
2026-04-25 12:08 51.74320 15.93232 37969 ft 405 kts 262°
2026-04-25 12:09 51.73176 15.84363 37967 ft 405 kts 262°
2026-04-25 12:09 51.72028 15.75519 37962 ft 405 kts 262°
2026-04-25 12:10 51.70868 15.66634 37946 ft 405 kts 262°
2026-04-25 12:10 51.69699 15.57737 37984 ft 406 kts 262°
2026-04-25 12:11 51.68524 15.48849 37977 ft 405 kts 262°
2026-04-25 12:11 51.67340 15.39951 37981 ft 405 kts 262°
2026-04-25 12:12 51.66356 15.32597 37981 ft 405 kts 262°
2026-04-25 12:12 51.64958 15.22213 37986 ft 405 kts 262°
2026-04-25 12:13 51.63759 15.13365 37982 ft 405 kts 262°
2026-04-25 12:13 51.62550 15.04497 37985 ft 405 kts 262°
2026-04-25 12:14 51.61341 14.95683 37993 ft 405 kts 262°
2026-04-25 12:14 51.60116 14.86810 37993 ft 405 kts 262°
2026-04-25 12:15 51.58885 14.77944 37966 ft 405 kts 262°
2026-04-25 12:15 51.57643 14.69120 38010 ft 408 kts 261°
2026-04-25 12:16 51.56377 14.60220 37998 ft 408 kts 261°
2026-04-25 12:16 51.55114 14.51380 38006 ft 407 kts 261°
2026-04-25 12:17 51.53836 14.42491 38005 ft 407 kts 261°
2026-04-25 12:17 51.52553 14.33615 38003 ft 407 kts 261°
2026-04-25 12:18 51.51142 14.24853 37979 ft 412 kts 251°
2026-04-25 12:18 51.48467 14.16641 37970 ft 416 kts 247°
2026-04-25 12:19 51.44400 14.04405 38004 ft 415 kts 247°
2026-04-25 12:20 51.41658 13.96215 38021 ft 418 kts 247°
2026-04-25 12:20 51.38898 13.87999 38014 ft 418 kts 246°
2026-04-25 12:21 51.36154 13.79856 38018 ft 418 kts 246°
2026-04-25 12:21 51.33380 13.71649 38017 ft 418 kts 246°
2026-04-25 12:22 51.30617 13.63502 38041 ft 418 kts 246°
2026-04-25 12:22 51.27840 13.55341 38042 ft 418 kts 246°
2026-04-25 12:23 51.25054 13.47179 38023 ft 418 kts 246°
2026-04-25 12:23 51.22270 13.39049 38030 ft 420 kts 246°
2026-04-25 12:24 51.19458 13.30868 38039 ft 420 kts 246°
2026-04-25 12:24 51.16659 13.22745 38032 ft 420 kts 246°
2026-04-25 12:25 51.13841 13.14599 38029 ft 420 kts 246°
2026-04-25 12:25 51.11477 13.07781 38041 ft 420 kts 246°
2026-04-25 12:26 51.08664 12.99695 38040 ft 419 kts 246°
2026-04-25 12:26 51.05820 12.91547 38072 ft 421 kts 245°
2026-04-25 12:27 51.02989 12.83460 38040 ft 421 kts 245°
2026-04-25 12:27 51.00125 12.75305 38069 ft 422 kts 245°
2026-04-25 12:28 50.97248 12.67143 38074 ft 422 kts 245°
2026-04-25 12:28 50.94395 12.59071 38071 ft 422 kts 245°
2026-04-25 12:29 50.91512 12.50941 38076 ft 422 kts 245°
2026-04-25 12:29 50.88642 12.42873 38064 ft 422 kts 245°
2026-04-25 12:30 50.85739 12.34739 38062 ft 423 kts 245°
2026-04-25 12:30 50.82854 12.26682 38054 ft 423 kts 245°
2026-04-25 12:31 50.79940 12.18567 38058 ft 424 kts 245°
2026-04-25 12:31 50.77015 12.10450 38057 ft 424 kts 244°
2026-04-25 12:32 50.74105 12.02398 38051 ft 424 kts 244°
2026-04-25 12:32 50.71168 11.94298 38037 ft 424 kts 244°
2026-04-25 12:33 50.68246 11.86265 38051 ft 424 kts 244°
2026-04-25 12:33 50.65297 11.78183 38061 ft 424 kts 244°
2026-04-25 12:34 50.62344 11.70114 38043 ft 424 kts 244°
2026-04-25 12:34 50.59403 11.62105 38055 ft 425 kts 244°
2026-04-25 12:35 50.56434 11.54044 38076 ft 425 kts 244°
2026-04-25 12:35 50.53477 11.46041 38058 ft 425 kts 244°
2026-04-25 12:36 50.50494 11.37992 38073 ft 425 kts 244°
2026-04-25 12:36 50.47511 11.29968 38098 ft 425 kts 244°
2026-04-25 12:37 50.44536 11.21991 38058 ft 424 kts 244°
2026-04-25 12:37 50.41547 11.14000 38064 ft 425 kts 244°
2026-04-25 12:38 50.38557 11.06033 38072 ft 425 kts 244°
2026-04-25 12:38 50.35546 10.98034 38044 ft 425 kts 243°
2026-04-25 12:39 50.32554 10.90110 38084 ft 425 kts 243°
2026-04-25 12:39 50.29534 10.82136 38087 ft 425 kts 243°
2026-04-25 12:40 50.26507 10.74169 38091 ft 425 kts 243°
2026-04-25 12:40 50.23501 10.66279 38090 ft 425 kts 243°
2026-04-25 12:41 50.20467 10.58334 38079 ft 425 kts 243°
2026-04-25 12:41 50.17449 10.50456 38089 ft 425 kts 243°
2026-04-25 12:42 50.14403 10.42525 38091 ft 425 kts 243°
2026-04-25 12:42 50.11369 10.34648 38094 ft 425 kts 243°
2026-04-25 12:43 50.08411 10.26684 38088 ft 421 kts 252°
2026-04-25 12:43 50.07677 10.22396 38095 ft 413 kts 266°
2026-04-25 12:43 50.07376 10.13461 38098 ft 414 kts 270°
2026-04-25 12:44 50.07239 10.04462 38101 ft 414 kts 271°
2026-04-25 12:45 50.07118 9.91071 38096 ft 413 kts 271°
2026-04-25 12:45 50.07001 9.77635 38105 ft 413 kts 271°
2026-04-25 12:46 50.06916 9.68673 38107 ft 414 kts 271°
2026-04-25 12:46 50.06822 9.59695 38099 ft 414 kts 271°
2026-04-25 12:47 50.06723 9.50792 38106 ft 413 kts 271°
2026-04-25 12:47 50.06139 9.41871 38133 ft 415 kts 266°
2026-04-25 12:48 50.05486 9.32934 38102 ft 414 kts 266°
2026-04-25 12:48 50.04862 9.24064 38086 ft 415 kts 266°
2026-04-25 12:49 50.04227 9.15080 38117 ft 418 kts 266°
2026-04-25 12:49 50.03585 9.06080 38116 ft 418 kts 266°
2026-04-25 12:50 50.02940 8.97151 38114 ft 418 kts 266°
2026-04-25 12:50 50.02284 8.88158 38122 ft 418 kts 266°
2026-04-25 12:51 50.01620 8.79160 38127 ft 418 kts 266°
2026-04-25 12:51 50.00955 8.70245 38131 ft 418 kts 266°
2026-04-25 12:52 50.00279 8.61269 38128 ft 418 kts 266°
2026-04-25 12:52 49.99594 8.52275 38130 ft 418 kts 266°
2026-04-25 12:53 49.98904 8.43298 38106 ft 418 kts 266°
2026-04-25 12:53 49.98209 8.34367 38109 ft 418 kts 266°
2026-04-25 12:54 49.97504 8.25380 38112 ft 418 kts 266°
2026-04-25 12:54 49.96793 8.16408 38110 ft 418 kts 266°
2026-04-25 12:55 49.96193 8.08922 38117 ft 419 kts 266°
2026-04-25 12:55 49.95350 7.98489 38120 ft 419 kts 265°
2026-04-25 12:56 49.94615 7.89499 38113 ft 419 kts 265°
2026-04-25 12:56 49.93879 7.80576 38125 ft 419 kts 265°
2026-04-25 12:57 49.93130 7.71585 38113 ft 419 kts 265°
2026-04-25 12:57 49.92375 7.62598 38118 ft 419 kts 265°
2026-04-25 12:58 49.91617 7.53672 38129 ft 419 kts 265°
2026-04-25 12:58 49.90848 7.44700 38121 ft 419 kts 265°
2026-04-25 12:59 49.90072 7.35727 38121 ft 419 kts 265°
2026-04-25 12:59 49.89294 7.26811 38108 ft 419 kts 265°
2026-04-25 13:00 49.88771 7.20859 38127 ft 419 kts 265°
2026-04-25 13:00 49.87710 7.08907 38127 ft 419 kts 265°
2026-04-25 13:01 49.86906 6.99945 38123 ft 419 kts 264°
2026-04-25 13:01 49.86101 6.91041 38117 ft 419 kts 264°
2026-04-25 13:02 49.85282 6.82070 38115 ft 419 kts 264°
2026-04-25 13:02 49.84457 6.73104 38101 ft 420 kts 264°
2026-04-25 13:03 49.83629 6.64158 38122 ft 420 kts 264°
2026-04-25 13:03 49.82798 6.55261 38111 ft 419 kts 264°
2026-04-25 13:04 49.81956 6.46312 38126 ft 420 kts 264°
2026-04-25 13:04 49.80867 6.37413 38145 ft 421 kts 261°
2026-04-25 13:05 49.79688 6.28543 38128 ft 421 kts 261°
2026-04-25 13:05 49.78518 6.19637 38132 ft 422 kts 261°
2026-04-25 13:06 49.77353 6.10806 38134 ft 422 kts 261°
2026-04-25 13:06 49.76171 6.01901 38136 ft 422 kts 261°
2026-04-25 13:07 49.74982 5.93000 38132 ft 422 kts 261°
2026-04-25 13:07 49.73547 5.84255 38149 ft 422 kts 253°
2026-04-25 13:08 49.71555 5.75680 38134 ft 423 kts 253°
2026-04-25 13:08 49.69574 5.67171 38140 ft 423 kts 253°
2026-04-25 13:09 49.67575 5.58612 37779 ft 421 kts 253°
2026-04-25 13:09 49.66588 5.54400 37054 ft 422 kts 253°
2026-04-25 13:09 49.65913 5.51523 36648 ft 420 kts 253°
2026-04-25 13:10 49.64596 5.45923 35856 ft 418 kts 253°
2026-04-25 13:10 49.63925 5.43071 35401 ft 419 kts 253°
2026-04-25 13:10 49.62938 5.38882 34675 ft 421 kts 253°
2026-04-25 13:10 49.62008 5.34587 33828 ft 424 kts 255°
2026-04-25 13:11 49.61075 5.30251 32963 ft 427 kts 255°
2026-04-25 13:11 49.60130 5.25902 32263 ft 426 kts 255°
2026-04-25 13:11 49.59373 5.21496 31576 ft 421 kts 266°
2026-04-25 13:11 49.59319 5.17006 30904 ft 418 kts 273°
2026-04-25 13:12 49.59300 5.12530 30336 ft 415 kts 272°
2026-04-25 13:12 49.59298 5.08107 29778 ft 410 kts 272°
2026-04-25 13:12 49.59312 5.03775 29215 ft 406 kts 273°
2026-04-25 13:12 49.59327 5.00826 28852 ft 403 kts 273°
2026-04-25 13:13 49.59364 4.95129 28153 ft 398 kts 273°
2026-04-25 13:13 49.59395 4.90868 27614 ft 394 kts 272°
2026-04-25 13:13 49.59423 4.86671 27101 ft 399 kts 272°
2026-04-25 13:13 49.59450 4.82375 26573 ft 402 kts 272°
2026-04-25 13:14 49.59476 4.78068 25958 ft 401 kts 272°
2026-04-25 13:14 49.59500 4.73742 25110 ft 406 kts 272°
2026-04-25 13:14 49.59523 4.69386 24424 ft 407 kts 272°
2026-04-25 13:14 49.59544 4.65013 23678 ft 409 kts 272°
2026-04-25 13:15 49.59564 4.60592 22774 ft 412 kts 272°
2026-04-25 13:15 49.59582 4.56229 21986 ft 412 kts 272°
2026-04-25 13:15 49.59599 4.51804 21218 ft 412 kts 272°
2026-04-25 13:15 49.59614 4.47392 20445 ft 412 kts 272°
2026-04-25 13:16 49.59627 4.42977 19669 ft 412 kts 272°
2026-04-25 13:16 49.59638 4.38619 18925 ft 399 kts 272°
2026-04-25 13:16 49.59647 4.34405 18140 ft 388 kts 272°
2026-04-25 13:16 49.59655 4.30292 17343 ft 378 kts 272°
2026-04-25 13:17 49.59660 4.26300 16627 ft 368 kts 271°
2026-04-25 13:17 49.59665 4.22397 15935 ft 359 kts 271°
2026-04-25 13:17 49.59668 4.18584 15262 ft 352 kts 271°
2026-04-25 13:17 49.59670 4.14901 14613 ft 345 kts 271°
2026-04-25 13:18 49.59671 4.11224 13962 ft 340 kts 271°
2026-04-25 13:18 49.59671 4.07596 13246 ft 335 kts 271°
2026-04-25 13:18 49.59671 4.04066 12812 ft 322 kts 271°
2026-04-25 13:18 49.59670 4.00709 12624 ft 304 kts 271°
2026-04-25 13:19 49.59668 3.97493 12415 ft 296 kts 271°
2026-04-25 13:19 49.59665 3.94376 12164 ft 292 kts 271°
2026-04-25 13:19 49.59661 3.91257 11941 ft 291 kts 271°
2026-04-25 13:19 49.59658 3.89182 11782 ft 291 kts 271°
2026-04-25 13:20 49.59651 3.85005 11452 ft 290 kts 271°
2026-04-25 13:20 49.59645 3.81943 11219 ft 289 kts 271°
2026-04-25 13:20 49.59638 3.78847 10977 ft 288 kts 271°
2026-04-25 13:20 49.59630 3.75753 10743 ft 288 kts 271°
2026-04-25 13:21 49.59622 3.72676 10504 ft 285 kts 271°
2026-04-25 13:21 49.59613 3.69646 10268 ft 280 kts 271°
2026-04-25 13:21 49.59603 3.66658 10037 ft 277 kts 272°
2026-04-25 13:21 49.59593 3.63701 9775 ft 272 kts 271°
2026-04-25 13:22 49.59581 3.60799 9553 ft 271 kts 272°
2026-04-25 13:22 49.59571 3.57883 9321 ft 271 kts 271°
2026-04-25 13:22 49.59523 3.55021 9112 ft 269 kts 265°
2026-04-25 13:23 49.58684 3.49356 8979 ft 272 kts 258°
2026-04-25 13:23 49.58241 3.46520 8925 ft 272 kts 258°
2026-04-25 13:23 49.57799 3.43684 8853 ft 272 kts 258°
2026-04-25 13:23 49.57367 3.40892 8772 ft 271 kts 259°
2026-04-25 13:24 49.56930 3.38069 8696 ft 270 kts 259°
2026-04-25 13:24 49.56734 3.35255 8599 ft 259 kts 272°
2026-04-25 13:24 49.56724 3.32525 8519 ft 251 kts 271°
2026-04-25 13:24 49.56701 3.29815 8428 ft 257 kts 271°
2026-04-25 13:25 49.56669 3.27010 8344 ft 264 kts 271°
2026-04-25 13:25 49.56630 3.24158 8276 ft 267 kts 270°
2026-04-25 13:25 49.56590 3.21331 8187 ft 267 kts 270°
2026-04-25 13:25 49.56546 3.18470 8097 ft 266 kts 270°
2026-04-25 13:26 49.56502 3.15609 8020 ft 266 kts 270°
2026-04-25 13:26 49.56456 3.12753 7938 ft 266 kts 271°
2026-04-25 13:26 49.56412 3.09945 7847 ft 265 kts 271°
2026-04-25 13:26 49.56365 3.07103 7775 ft 265 kts 271°
2026-04-25 13:27 49.56319 3.04262 7693 ft 265 kts 270°
2026-04-25 13:27 49.56272 3.01415 7615 ft 265 kts 271°
2026-04-25 13:27 49.56225 2.98573 7522 ft 265 kts 270°
2026-04-25 13:27 49.56175 2.95729 7460 ft 265 kts 270°
2026-04-25 13:28 49.56126 2.92914 7370 ft 265 kts 270°
2026-04-25 13:28 49.56093 2.91003 7326 ft 264 kts 271°
2026-04-25 13:28 49.56027 2.87269 7304 ft 264 kts 270°
2026-04-25 13:28 49.55975 2.84435 7314 ft 263 kts 270°
2026-04-25 13:29 49.55920 2.81618 7312 ft 263 kts 270°
2026-04-25 13:29 49.55867 2.78791 7320 ft 263 kts 270°
2026-04-25 13:29 49.55814 2.75963 7330 ft 264 kts 271°
2026-04-25 13:30 49.55707 2.70343 7322 ft 264 kts 270°
2026-04-25 13:30 49.55650 2.67505 7299 ft 265 kts 270°
2026-04-25 13:30 49.55594 2.64654 7254 ft 265 kts 270°
2026-04-25 13:31 49.55480 2.58978 7157 ft 265 kts 270°
2026-04-25 13:31 49.55404 2.56181 7120 ft 264 kts 270°
2026-04-25 13:31 49.55328 2.53350 6967 ft 264 kts 270°
2026-04-25 13:31 49.55267 2.50512 6740 ft 264 kts 269°
2026-04-25 13:32 49.55200 2.47686 6566 ft 263 kts 270°
2026-04-25 13:32 49.55141 2.44875 6400 ft 263 kts 270°
2026-04-25 13:32 49.55087 2.42057 6223 ft 262 kts 269°
2026-04-25 13:32 49.55031 2.39258 6082 ft 261 kts 270°
2026-04-25 13:33 49.54970 2.36463 5900 ft 261 kts 270°
2026-04-25 13:33 49.54922 2.33709 5758 ft 260 kts 270°
2026-04-25 13:33 49.54868 2.30916 5637 ft 259 kts 270°
2026-04-25 13:33 49.54811 2.28161 5461 ft 255 kts 270°
2026-04-25 13:34 49.54780 2.25446 5300 ft 250 kts 275°
2026-04-25 13:34 49.55180 2.22911 5174 ft 246 kts 291°
2026-04-25 13:34 49.55782 2.20428 5077 ft 247 kts 291°
2026-04-25 13:34 49.56398 2.17952 4930 ft 247 kts 292°
2026-04-25 13:35 49.57010 2.15469 4766 ft 247 kts 291°
2026-04-25 13:35 49.57620 2.12988 4598 ft 247 kts 291°
2026-04-25 13:35 49.58228 2.10539 4395 ft 247 kts 292°
2026-04-25 13:35 49.58845 2.08062 4233 ft 247 kts 291°
2026-04-25 13:36 49.59456 2.05591 4064 ft 246 kts 292°
2026-04-25 13:36 49.60062 2.03132 3830 ft 243 kts 291°
2026-04-25 13:36 49.60661 2.00712 3663 ft 239 kts 291°
2026-04-25 13:36 49.61250 1.98337 3470 ft 234 kts 292°
2026-04-25 13:37 49.61819 1.96040 3289 ft 229 kts 292°
2026-04-25 13:37 49.62379 1.93764 3112 ft 224 kts 292°
2026-04-25 13:37 49.62807 1.91465 2877 ft 224 kts 272°
2026-04-25 13:37 49.62343 1.89213 2552 ft 225 kts 231°
2026-04-25 13:38 49.61050 1.87990 2329 ft 220 kts 188°
2026-04-25 13:38 49.59585 1.88340 2283 ft 215 kts 155°
2026-04-25 13:38 49.58269 1.89327 2298 ft 206 kts 152°
2026-04-25 13:38 49.57003 1.90320 2140 ft 203 kts 152°
2026-04-25 13:39 49.55750 1.91286 1980 ft 198 kts 151°
2026-04-25 13:39 49.54535 1.92231 1978 ft 198 kts 152°
2026-04-25 13:39 49.53405 1.93285 1986 ft 184 kts 136°
2026-04-25 13:39 49.52587 1.94744 1949 ft 177 kts 122°
2026-04-25 13:40 49.51918 1.96333 2002 ft 176 kts 121°
2026-04-25 13:40 49.51243 1.97904 1971 ft 175 kts 121°
2026-04-25 13:40 49.50572 1.99468 1911 ft 174 kts 123°
2026-04-25 13:40 49.49894 2.01025 1801 ft 176 kts 122°
2026-04-25 13:41 49.49220 2.02585 1555 ft 179 kts 122°
2026-04-25 13:41 49.48544 2.04139 1373 ft 173 kts 122°
2026-04-25 13:41 49.47891 2.05636 1142 ft 161 kts 122°
2026-04-25 13:41 49.47299 2.07002 938 ft 149 kts 122°
2026-04-25 13:42 49.46739 2.08300 720 ft 144 kts 123°
2026-04-25 13:42 49.46185 2.09573 540 ft 142 kts 122°
2026-04-25 13:42 49.45647 2.10803 365 ft 135 kts 123°
2026-04-25 13:42 49.45215 2.11805 336 ft 79 kts 124°
2026-04-25 13:43 49.45039 2.12246 334 ft 26 kts 93°
2026-04-25 13:43 49.45028 2.12483 330 ft 20 kts 93°
2026-04-25 13:43 49.45018 2.12687 326 ft 18 kts 99°
2026-04-25 13:43 49.44961 2.12851 320 ft 18 kts 123°
2026-04-25 13:44 49.44883 2.13030 316 ft 20 kts 124°
2026-04-25 13:44 49.44801 2.13218 311 ft 22 kts 123°
2026-04-25 13:44 49.44745 2.13297 312 ft 6 kts 164°
2026-04-25 13:44 49.44744 2.13297 312 ft 0 kts 165°
2026-04-25 13:46 49.44731 2.13300 311 ft 4 kts 176°
2026-04-25 13:46 49.44688 2.13286 309 ft 8 kts 205°
2026-04-25 13:46 49.44649 2.13207 311 ft 9 kts 261°
2026-04-25 13:46 49.44655 2.13110 313 ft 10 kts 285°
2026-04-25 13:47 49.44700 2.12989 314 ft 16 kts 303°
2026-04-25 13:47 49.44765 2.12839 318 ft 17 kts 303°
2026-04-25 13:47 49.44831 2.12686 320 ft 18 kts 303°
2026-04-25 13:47 49.44898 2.12530 326 ft 17 kts 303°
2026-04-25 13:48 49.44963 2.12380 329 ft 17 kts 303°
2026-04-25 13:48 49.45030 2.12230 333 ft 17 kts 304°
2026-04-25 13:48 49.45096 2.12078 332 ft 18 kts 304°
2026-04-25 13:48 49.45167 2.11914 337 ft 19 kts 303°
2026-04-25 13:49 49.45245 2.11734 336 ft 22 kts 303°
2026-04-25 13:49 49.45333 2.11532 336 ft 23 kts 303°
2026-04-25 13:49 49.45426 2.11319 348 ft 24 kts 304°
2026-04-25 13:49 49.45518 2.11107 352 ft 24 kts 304°
2026-04-25 13:50 49.45603 2.10913 358 ft 16 kts 305°
2026-04-25 13:50 49.45682 2.10902 356 ft 11 kts 28°
2026-04-25 13:50 49.45755 2.10962 355 ft 8 kts 28°
2026-04-25 13:50 49.45794 2.11016 357 ft 7 kts 90°
2026-04-25 13:51 49.45786 2.11068 354 ft 3 kts 68°
2026-04-25 13:51 49.45808 2.11097 352 ft 5 kts 34°
2026-04-25 13:51 49.45827 2.11115 353 ft 2 kts 33°
2026-04-25 13:51 49.45828 2.11117 353 ft 0 kts 32°